| time (UTC) | temp C | wind direction | speed KPH | gust KPH | rain 1hr cm | rain 24hr cm | rain mn cm | humidity % | barometer mb |
| 20260506025512 | 6 | 236 | 0.0 | 0.0 | 0.00 | 0.20 | 0.20 | 80 | 1005.9 |
| 20260506024349 | 6 | 236 | 0.0 | 0.0 | 0.00 | 0.20 | 0.20 | 79 | 1005.4 |
| 20260506023221 | 6 | 236 | 0.0 | 0.0 | 0.00 | 0.20 | 0.20 | 79 | 1004.9 |
| 20260506022707 | 6 | 236 | 0.0 | 0.0 | 0.00 | 0.20 | 0.20 | 79 | 1004.8 |
| 20260506022210 | 6 | 236 | 0.0 | 0.0 | 0.00 | 0.20 | 0.20 | 79 | 1004.7 |
| 20260506021705 | 6 | 236 | 0.0 | 0.0 | 0.00 | 0.20 | 0.20 | 79 | 1004.6 |
| 20260506021202 | 6 | 236 | 0.0 | 0.0 | 0.00 | 0.20 | 0.20 | 79 | 1004.6 |
| 20260506015410 | 6 | 236 | 0.0 | 6.4 | 0.00 | 0.20 | 0.20 | 78 | 1004.3 |
| 20260506014907 | 7 | 258 | 0.0 | 0.0 | 0.00 | 0.20 | 0.20 | 77 | 1004.2 |
| 20260506014413 | 7 | 234 | 0.0 | 8.0 | 0.00 | 0.15 | 0.15 | 76 | 1004.1 |
| 20260506013251 | 8 | 343 | 0.0 | 6.4 | 0.00 | 0.15 | 0.15 | 70 | 1004.2 |
| 20260506012744 | 8 | 288 | 0.0 | 0.0 | 0.00 | 0.15 | 0.15 | 68 | 1003.8 |
| 20260506012226 | 8 | 261 | 0.0 | 0.0 | 0.00 | 0.15 | 0.15 | 66 | 1003.8 |
| 20260506011724 | 8 | 260 | 0.0 | 0.0 | 0.00 | 0.15 | 0.15 | 66 | 1003.6 |
| 20260506011212 | 8 | 259 | 0.0 | 0.0 | 0.00 | 0.15 | 0.15 | 65 | 1003.6 |
| 20260506010705 | 8 | 258 | 0.0 | 0.0 | 0.00 | 0.15 | 0.15 | 65 | 1003.6 |
| 20260506010207 | 8 | 296 | 0.0 | 0.0 | 0.00 | 0.15 | 0.15 | 65 | 1003.6 |
| 20260506005712 | 8 | 297 | 0.0 | 3.2 | 0.00 | 0.15 | 0.15 | 64 | 1003.7 |
| 20260506005154 | 8 | 292 | 0.0 | 9.7 | 0.00 | 0.15 | 0.15 | 63 | 1003.5 |
| 20260506004652 | 9 | 258 | 0.0 | 0.0 | 0.00 | 0.15 | 0.15 | 63 | 1003.3 |
| 20260506004134 | 9 | 281 | 0.0 | 0.0 | 0.00 | 0.15 | 0.15 | 64 | 1003.4 |
| 20260506003615 | 9 | 250 | 0.0 | 4.8 | 0.00 | 0.15 | 0.15 | 64 | 1003.3 |
| 20260506003106 | 9 | 249 | 0.0 | 0.0 | 0.00 | 0.15 | 0.15 | 64 | 1003.3 |
| 20260506002553 | 9 | 249 | 0.0 | 0.0 | 0.00 | 0.15 | 0.15 | 64 | 1003.3 |
| 20260506002042 | 9 | 248 | 0.0 | 0.0 | 0.00 | 0.15 | 0.15 | 66 | 1003.2 |
| 20260506001524 | 9 | 248 | 0.0 | 0.0 | 0.00 | 0.15 | 0.15 | 65 | 1003.2 |
| 20260506001014 | 9 | 248 | 0.0 | 0.0 | 0.00 | 0.15 | 0.15 | 65 | 1003.2 |
| 20260506000458 | 10 | 242 | 0.0 | 0.0 | 0.00 | 0.15 | 0.15 | 64 | 1003.2 |
| 20260505235945 | 10 | 242 | 0.0 | 1.6 | 0.00 | 0.15 | 0.15 | 63 | 1003.2 |
| 20260505235451 | 10 | 242 | 1.6 | 11.3 | 0.00 | 0.15 | 0.15 | 61 | 1003.2 |
| 20260505234328 | 11 | 236 | 0.0 | 17.7 | 0.00 | 0.15 | 0.15 | 60 | 1003.3 |
| 20260505233811 | 10 | 259 | 0.0 | 6.4 | 0.00 | 0.15 | 0.15 | 62 | 1003.3 |
| 20260505232620 | 10 | 235 | 0.0 | 0.0 | 0.00 | 0.15 | 0.15 | 61 | 1003.1 |
| 20260505232126 | 11 | 219 | 0.0 | 3.2 | 0.00 | 0.15 | 0.15 | 60 | 1003.2 |
| 20260505231619 | 11 | 238 | 0.0 | 8.0 | 0.00 | 0.15 | 0.15 | 62 | 1003.1 |
| 20260505231113 | 11 | 295 | 0.0 | 0.0 | 0.00 | 0.15 | 0.15 | 64 | 1002.8 |
| 20260505230606 | 10 | 229 | 1.6 | 17.7 | 0.00 | 0.15 | 0.15 | 69 | 1002.7 |
| 20260505230104 | 10 | 218 | 1.6 | 9.7 | 0.00 | 0.15 | 0.15 | 71 | 1002.6 |
| 20260505225553 | 10 | 300 | 0.0 | 9.7 | 0.00 | 0.15 | 0.15 | 71 | 1002.6 |
| 20260505225050 | 10 | 246 | 0.0 | 4.8 | 0.00 | 0.15 | 0.15 | 74 | 1002.8 |
| 20260505223914 | 9 | 262 | 0.0 | 0.0 | 0.00 | 0.15 | 0.15 | 77 | 1003.0 |
| 20260505223415 | 9 | 250 | 0.0 | 17.7 | 0.00 | 0.15 | 0.15 | 80 | 1003.0 |
| 20260505222914 | 8 | 302 | 0.0 | 12.9 | 0.00 | 0.15 | 0.15 | 81 | 1003.0 |
| 20260505222424 | 8 | 298 | 0.0 | 14.5 | 0.00 | 0.15 | 0.15 | 83 | 1003.0 |
| 20260505221923 | 8 | 273 | 0.0 | 0.0 | 0.00 | 0.15 | 0.15 | 81 | 1003.1 |
| 20260505221428 | 8 | 285 | 0.0 | 17.7 | 0.00 | 0.15 | 0.15 | 81 | 1003.2 |
| 20260505220925 | 8 | 278 | 0.0 | 17.7 | 0.00 | 0.15 | 0.15 | 78 | 1002.9 |
| 20260505220424 | 8 | 304 | 0.0 | 0.0 | 0.00 | 0.15 | 0.15 | 78 | 1003.0 |
| 20260505215932 | 9 | 281 | 0.0 | 4.8 | 0.00 | 0.15 | 0.15 | 77 | 1002.8 |
| 20260505214817 | 10 | 220 | 0.0 | 20.9 | 0.00 | 0.15 | 0.15 | 72 | 1002.9 |
| 20260505214316 | 10 | 246 | 0.0 | 6.4 | 0.00 | 0.15 | 0.15 | 70 | 1002.8 |
| 20260505213806 | 10 | 286 | 0.0 | 0.0 | 0.00 | 0.15 | 0.15 | 71 | 1002.6 |
| 20260505213300 | 10 | 285 | 0.0 | 1.6 | 0.00 | 0.15 | 0.15 | 71 | 1002.7 |
| 20260505212749 | 10 | 166 | 0.0 | 3.2 | 0.00 | 0.15 | 0.15 | 71 | 1002.8 |
| 20260505212239 | 10 | 257 | 1.6 | 14.5 | 0.00 | 0.15 | 0.15 | 72 | 1002.9 |
| 20260505211724 | 10 | 289 | 1.6 | 20.9 | 0.00 | 0.15 | 0.15 | 72 | 1003.3 |
| 20260505211223 | 10 | 247 | 1.6 | 20.9 | 0.00 | 0.15 | 0.15 | 73 | 1003.3 |
| 20260505210727 | 10 | 282 | 1.6 | 14.5 | 0.00 | 0.15 | 0.15 | 73 | 1003.1 |
| 20260505205610 | 10 | 226 | 0.0 | 17.7 | 0.00 | 0.15 | 0.15 | 71 | 1003.1 |
| 20260505205101 | 11 | 289 | 1.6 | 12.9 | 0.00 | 0.15 | 0.15 | 69 | 1003.1 |
| 20260505204544 | 11 | 330 | 1.6 | 17.7 | 0.00 | 0.15 | 0.15 | 69 | 1003.1 |
| 20260505204044 | 11 | 283 | 1.6 | 16.1 | 0.00 | 0.15 | 0.15 | 68 | 1003.0 |
| 20260505203526 | 11 | 254 | 1.6 | 16.1 | 0.00 | 0.15 | 0.15 | 71 | 1003.1 |
| 20260505203024 | 11 | 318 | 1.6 | 22.5 | 0.00 | 0.15 | 0.15 | 72 | 1003.2 |
| 20260505202508 | 11 | 240 | 1.6 | 22.5 | 0.00 | 0.15 | 0.15 | 76 | 1003.1 |
| 20260505202012 | 10 | 298 | 1.6 | 22.5 | 0.00 | 0.15 | 0.15 | 76 | 1003.1 |
| 20260505201522 | 10 | 141 | 1.6 | 19.3 | 0.00 | 0.15 | 0.15 | 76 | 1003.0 |
| 20260505201017 | 10 | 284 | 1.6 | 17.7 | 0.00 | 0.15 | 0.15 | 77 | 1002.9 |
| 20260505200513 | 10 | 272 | 0.0 | 0.0 | 0.00 | 0.15 | 0.15 | 81 | 1002.8 |
| 20260505200001 | 10 | 265 | 0.0 | 8.0 | 0.00 | 0.15 | 0.15 | 81 | 1002.7 |
| 20260505195506 | 9 | 277 | 1.6 | 16.1 | 0.00 | 0.15 | 0.15 | 81 | 1002.8 |
| 20260505194956 | 9 | 277 | 0.0 | 16.1 | 0.00 | 0.15 | 0.15 | 81 | 1002.9 |
| 20260505194451 | 10 | 300 | 0.0 | 16.1 | 0.00 | 0.15 | 0.15 | 82 | 1003.0 |
| 20260505193938 | 10 | 298 | 0.0 | 16.1 | 0.00 | 0.15 | 0.15 | 81 | 1003.0 |
| 20260505193441 | 10 | 270 | 0.0 | 11.3 | 0.00 | 0.15 | 0.15 | 80 | 1003.0 |
| 20260505192941 | 10 | 241 | 0.0 | 4.8 | 0.00 | 0.15 | 0.15 | 82 | 1003.1 |
| 20260505192437 | 9 | 241 | 0.0 | 0.0 | 0.00 | 0.15 | 0.15 | 82 | 1003.1 |
| 20260505191309 | 10 | 307 | 0.0 | 6.4 | 0.00 | 0.10 | 0.15 | 84 | 1003.1 |
| 20260505190812 | 9 | 250 | 0.0 | 1.6 | 0.00 | 0.10 | 0.13 | 79 | 1003.2 |
| 20260505185650 | 10 | 201 | 0.0 | 20.9 | 0.00 | 0.10 | 0.13 | 72 | 1003.3 |
| 20260505185153 | 10 | 211 | 3.2 | 20.9 | 0.00 | 0.10 | 0.13 | 68 | 1003.2 |
| 20260505184652 | 11 | 236 | 4.8 | 20.9 | 0.00 | 0.10 | 0.13 | 65 | 1003.2 |
| 20260505184146 | 11 | 164 | 3.2 | 20.9 | 0.00 | 0.10 | 0.13 | 64 | 1003.1 |
| 20260505183015 | 11 | 241 | 0.0 | 17.7 | 0.00 | 0.10 | 0.13 | 66 | 1003.2 |
| 20260505182523 | 11 | 184 | 0.0 | 0.0 | 0.00 | 0.10 | 0.13 | 69 | 1003.1 |
| 20260505180745 | 10 | 171 | 0.0 | 16.1 | 0.00 | 0.10 | 0.13 | 73 | 1003.2 |
| 20260505180248 | 10 | 210 | 1.6 | 0.0 | 0.00 | 0.10 | 0.13 | 73 | 1003.4 |
| 20260505175732 | 10 | 222 | 1.6 | 11.3 | 0.00 | 0.10 | 0.13 | 74 | 1003.4 |
| 20260505175222 | 10 | 235 | 0.0 | 11.3 | 0.00 | 0.10 | 0.13 | 77 | 1003.5 |
| 20260505174732 | 9 | 198 | 0.0 | 0.0 | 0.00 | 0.10 | 0.13 | 76 | 1003.3 |
| 20260505174223 | 9 | 198 | 0.0 | 0.0 | 0.00 | 0.10 | 0.13 | 77 | 1003.3 |
| 20260505173713 | 9 | 198 | 0.0 | 0.0 | 0.00 | 0.10 | 0.13 | 77 | 1003.5 |
| 20260505172554 | 8 | 188 | 0.0 | 0.0 | 0.00 | 0.10 | 0.13 | 76 | 1003.5 |
| 20260505172041 | 8 | 186 | 0.0 | 9.7 | 0.00 | 0.10 | 0.13 | 76 | 1003.2 |
| 20260505170919 | 8 | 184 | 0.0 | 9.7 | 0.00 | 0.10 | 0.13 | 81 | 1003.4 |
| 20260505170409 | 8 | 250 | 0.0 | 0.0 | 0.00 | 0.10 | 0.13 | 81 | 1003.2 |
| 20260505165910 | 7 | 250 | 0.0 | 0.0 | 0.00 | 0.10 | 0.13 | 81 | 1003.3 |
| 20260505165400 | 7 | 303 | 0.0 | 0.0 | 0.00 | 0.10 | 0.13 | 83 | 1003.4 |
| 20260505164908 | 7 | 303 | 0.0 | 0.0 | 0.00 | 0.10 | 0.13 | 84 | 1003.3 |
| 20260505164352 | 7 | 303 | 0.0 | 0.0 | 0.00 | 0.10 | 0.13 | 85 | 1003.2 |
| 20260505163846 | 7 | 303 | 0.0 | 0.0 | 0.00 | 0.10 | 0.13 | 84 | 1003.2 |
| 20260505163338 | 7 | 303 | 0.0 | 0.0 | 0.00 | 0.10 | 0.13 | 85 | 1003.1 |
| 20260505162839 | 7 | 303 | 0.0 | 0.0 | 0.00 | 0.10 | 0.13 | 86 | 1003.3 |
| 20260505161712 | 7 | 304 | 0.0 | 0.0 | 0.00 | 0.10 | 0.13 | 86 | 1003.5 |
| 20260505160600 | 6 | 304 | 0.0 | 0.0 | 0.00 | 0.10 | 0.13 | 86 | 1003.7 |
| 20260505160108 | 6 | 304 | 0.0 | 0.0 | 0.00 | 0.10 | 0.13 | 85 | 1003.6 |
| 20260505153311 | 6 | 304 | 0.0 | 0.0 | 0.00 | 0.10 | 0.13 | 87 | 1003.6 |
| 20260505152807 | 6 | 304 | 0.0 | 0.0 | 0.00 | 0.10 | 0.13 | 88 | 1003.5 |
| 20260505152305 | 6 | 304 | 0.0 | 0.0 | 0.00 | 0.10 | 0.13 | 88 | 1003.7 |
| 20260505151811 | 6 | 267 | 0.0 | 0.0 | 0.00 | 0.10 | 0.13 | 88 | 1003.7 |
| 20260505151259 | 6 | 267 | 0.0 | 0.0 | 0.00 | 0.10 | 0.13 | 88 | 1003.8 |
| 20260505150804 | 6 | 267 | 0.0 | 0.0 | 0.00 | 0.10 | 0.13 | 88 | 1003.8 |
| 20260505150258 | 6 | 267 | 0.0 | 0.0 | 0.00 | 0.10 | 0.13 | 87 | 1003.7 |
| 20260505124943 | 8 | 294 | 0.0 | 0.0 | 0.00 | 0.00 | 0.00 | 59 | 1003.2 |
| 20260505124453 | 8 | 294 | 0.0 | 0.0 | 0.00 | 0.00 | 0.00 | 58 | 1003.2 |
| 20260505123947 | 8 | 294 | 0.0 | 0.0 | 0.00 | 0.00 | 0.00 | 58 | 1003.2 |
| 20260505123450 | 8 | 292 | 0.0 | 0.0 | 0.00 | 0.00 | 0.00 | 58 | 1003.3 |
| 20260505122329 | 8 | 292 | 0.0 | 0.0 | 0.00 | 0.00 | 0.00 | 58 | 1003.1 |
| 20260505121817 | 8 | 292 | 0.0 | 0.0 | 0.00 | 0.00 | 0.00 | 59 | 1003.2 |
| 20260505121258 | 8 | 301 | 0.0 | 0.0 | 0.00 | 0.00 | 0.00 | 59 | 1003.4 |
| 20260505120804 | 8 | 238 | 0.0 | 6.4 | 0.00 | 0.00 | 0.00 | 59 | 1003.4 |
| 20260505120304 | 8 | 236 | 0.0 | 3.2 | 0.00 | 0.00 | 0.00 | 58 | 1003.2 |
| 20260505115801 | 8 | 236 | 0.0 | 3.2 | 0.00 | 0.00 | 0.00 | 58 | 1003.0 |
| 20260505115306 | 8 | 240 | 0.0 | 0.0 | 0.00 | 0.00 | 0.00 | 56 | 1003.0 |
| 20260505114746 | 8 | 240 | 0.0 | 0.0 | 0.00 | 0.00 | 0.00 | 56 | 1003.0 |
| 20260505114255 | 8 | 291 | 0.0 | 0.0 | 0.00 | 0.00 | 0.00 | 55 | 1003.1 |
| 20260505113739 | 8 | 291 | 0.0 | 0.0 | 0.00 | 0.00 | 0.00 | 55 | 1003.0 |
| 20260505113221 | 8 | 292 | 0.0 | 0.0 | 0.00 | 0.00 | 0.00 | 55 | 1003.2 |
| 20260505112101 | 8 | 267 | 0.0 | 0.0 | 0.00 | 0.00 | 0.00 | 53 | 1003.1 |
| 20260505111558 | 8 | 267 | 0.0 | 12.9 | 0.00 | 0.00 | 0.00 | 52 | 1002.9 |
| 20260505110440 | 8 | 275 | 0.0 | 0.0 | 0.00 | 0.00 | 0.00 | 51 | 1003.2 |
| 20260505101919 | 8 | 147 | 3.2 | 22.5 | 0.00 | 0.00 | 0.00 | 46 | 1002.8 |
| 20260505101402 | 8 | 284 | 0.0 | 17.7 | 0.00 | 0.00 | 0.00 | 46 | 1002.8 |
| 20260505100903 | 9 | 264 | 1.6 | 11.3 | 0.00 | 0.00 | 0.00 | 45 | 1002.7 |
| 20260505095740 | 9 | 258 | 1.6 | 17.7 | 0.00 | 0.00 | 0.00 | 44 | 1003.0 |
| 20260505095233 | 9 | 231 | 1.6 | 17.7 | 0.00 | 0.00 | 0.00 | 43 | 1003.0 |
| 20260505094718 | 9 | 257 | 1.6 | 17.7 | 0.00 | 0.00 | 0.00 | 43 | 1002.8 |
| 20260505094203 | 9 | 294 | 1.6 | 24.1 | 0.00 | 0.00 | 0.00 | 43 | 1002.7 |
| 20260505093654 | 9 | 305 | 1.6 | 17.7 | 0.00 | 0.00 | 0.00 | 43 | 1002.5 |
| 20260505093140 | 9 | 261 | 0.0 | 17.7 | 0.00 | 0.00 | 0.00 | 43 | 1002.4 |
| 20260505092620 | 9 | 240 | 0.0 | 12.9 | 0.00 | 0.00 | 0.00 | 43 | 1002.5 |
| 20260505092104 | 10 | 258 | 1.6 | 0.0 | 0.00 | 0.00 | 0.00 | 42 | 1002.3 |
| 20260505091611 | 10 | 261 | 1.6 | 16.1 | 0.00 | 0.00 | 0.00 | 42 | 1002.4 |
| 20260505091111 | 10 | 259 | 3.2 | 24.1 | 0.00 | 0.00 | 0.00 | 42 | 1002.6 |
| 20260505090603 | 10 | 153 | 3.2 | 24.1 | 0.00 | 0.00 | 0.00 | 42 | 1002.7 |
| 20260505084837 | 10 | 278 | 4.8 | 25.7 | 0.00 | 0.00 | 0.00 | 41 | 1003.3 |
| 20260505083738 | 10 | 341 | 4.8 | 25.7 | 0.00 | 0.00 | 0.00 | 39 | 1003.6 |
| 20260505082615 | 10 | 280 | 4.8 | 29.0 | 0.00 | 0.00 | 0.00 | 36 | 1003.5 |
| 20260505081510 | 10 | 246 | 4.8 | 29.0 | 0.00 | 0.00 | 0.00 | 38 | 1003.5 |
| 20260505080952 | 10 | 214 | 3.2 | 20.9 | 0.00 | 0.00 | 0.00 | 40 | 1003.5 |
| 20260505080457 | 10 | 236 | 3.2 | 20.9 | 0.00 | 0.00 | 0.00 | 41 | 1003.6 |
| 20260505075329 | 10 | 277 | 3.2 | 27.4 | 0.00 | 0.00 | 0.00 | 42 | 1003.7 |
| 20260505074822 | 10 | 287 | 3.2 | 27.4 | 0.00 | 0.00 | 0.00 | 42 | 1003.6 |
| 20260505074309 | 10 | 300 | 3.2 | 27.4 | 0.00 | 0.00 | 0.00 | 41 | 1003.4 |
| 20260505073819 | 10 | 289 | 3.2 | 19.3 | 0.00 | 0.00 | 0.00 | 41 | 1003.4 |
| 20260505073303 | 11 | 261 | 0.0 | 19.3 | 0.00 | 0.00 | 0.00 | 41 | 1003.7 |
| 20260505072748 | 11 | 273 | 1.6 | 19.3 | 0.00 | 0.00 | 0.00 | 40 | 1003.4 |
| 20260505072255 | 11 | 247 | 4.8 | 24.1 | 0.00 | 0.00 | 0.00 | 40 | 1003.4 |
| 20260505071739 | 11 | 242 | 3.2 | 24.1 | 0.00 | 0.00 | 0.00 | 40 | 1003.4 |
| 20260505071231 | 11 | 257 | 4.8 | 24.1 | 0.00 | 0.00 | 0.00 | 40 | 1003.5 |
| 20260505070730 | 11 | 224 | 3.2 | 24.1 | 0.00 | 0.00 | 0.00 | 40 | 1003.6 |
| 20260505070239 | 11 | 216 | 3.2 | 12.9 | 0.00 | 0.00 | 0.00 | 40 | 1003.3 |
| 20260505065737 | 11 | 179 | 4.8 | 25.7 | 0.00 | 0.00 | 0.00 | 40 | 1003.4 |
| 20260505065228 | 11 | 324 | 3.2 | 25.7 | 0.00 | 0.00 | 0.00 | 40 | 1003.6 |
| 20260505064723 | 11 | 267 | 0.0 | 17.7 | 0.00 | 0.00 | 0.00 | 41 | 1003.6 |
| 20260505064224 | 11 | 273 | 0.0 | 9.7 | 0.00 | 0.00 | 0.00 | 42 | 1003.7 |
| 20260505063056 | 11 | 196 | 0.0 | 14.5 | 0.00 | 0.00 | 0.00 | 41 | 1003.7 |
| 20260505062540 | 11 | 231 | 0.0 | 14.5 | 0.00 | 0.00 | 0.00 | 38 | 1003.8 |
| 20260505062041 | 11 | 227 | 0.0 | 3.2 | 0.00 | 0.00 | 0.00 | 37 | 1003.9 |
| 20260505061528 | 11 | 254 | 1.6 | 24.1 | 0.00 | 0.00 | 0.00 | 37 | 1004.0 |
| 20260505060342 | 11 | 238 | 0.0 | 4.8 | 0.00 | 0.00 | 0.00 | 39 | 1004.0 |
| 20260505055851 | 11 | 248 | 0.0 | 11.3 | 0.00 | 0.00 | 0.00 | 39 | 1004.0 |
| 20260505054731 | 11 | 261 | 0.0 | 0.0 | 0.00 | 0.00 | 0.00 | 40 | 1003.9 |
| 20260505054229 | 11 | 209 | 0.0 | 9.7 | 0.00 | 0.00 | 0.00 | 40 | 1004.0 |
| 20260505053712 | 12 | 192 | 1.6 | 16.1 | 0.00 | 0.00 | 0.00 | 39 | 1004.0 |
| 20260505052545 | 12 | 215 | 0.0 | 12.9 | 0.00 | 0.00 | 0.00 | 35 | 1004.1 |
| 20260505052043 | 13 | 231 | 0.0 | 16.1 | 0.00 | 0.00 | 0.00 | 32 | 1004.0 |
| 20260505051550 | 13 | 266 | 0.0 | 22.5 | 0.00 | 0.00 | 0.00 | 30 | 1003.9 |
| 20260505051042 | 13 | 249 | 1.6 | 22.5 | 0.00 | 0.00 | 0.00 | 30 | 1004.0 |
| 20260505050530 | 13 | 182 | 1.6 | 22.5 | 0.00 | 0.00 | 0.00 | 29 | 1004.0 |
| 20260505041449 | 13 | 273 | 0.0 | 20.9 | 0.00 | 0.00 | 0.00 | 28 | 1004.0 |
| 20260505040931 | 14 | 279 | 0.0 | 4.8 | 0.00 | 0.00 | 0.00 | 28 | 1003.9 |
| 20260505040432 | 14 | 246 | 0.0 | 0.0 | 0.00 | 0.00 | 0.00 | 28 | 1004.0 |
| 20260505035922 | 14 | 277 | 0.0 | 22.5 | 0.00 | 0.00 | 0.00 | 28 | 1004.1 |
| 20260505035405 | 14 | 285 | 0.0 | 22.5 | 0.00 | 0.00 | 0.00 | 28 | 1004.1 |
| 20260505034851 | 14 | 198 | 0.0 | 22.5 | 0.00 | 0.00 | 0.00 | 28 | 1004.2 |
| 20260505034357 | 14 | 245 | 0.0 | 22.5 | 0.00 | 0.00 | 0.00 | 28 | 1004.2 |
| 20260505033907 | 14 | 275 | 0.0 | 0.0 | 0.00 | 0.00 | 0.00 | 28 | 1004.2 |
| 20260505032800 | 14 | 221 | 0.0 | 9.7 | 0.00 | 0.00 | 0.00 | 28 | 1004.1 |
| 20260505032304 | 14 | 281 | 0.0 | 0.0 | 0.00 | 0.00 | 0.00 | 27 | 1003.9 |
| 20260505031759 | 14 | 288 | 0.0 | 17.7 | 0.00 | 0.00 | 0.00 | 27 | 1003.9 |
| 20260505031255 | 15 | 294 | 0.0 | 11.3 | 0.00 | 0.00 | 0.00 | 27 | 1004.0 |
| 20260505030752 | 15 | 286 | 0.0 | 4.8 | 0.00 | 0.00 | 0.00 | 27 | 1003.7 |
| 20260505030234 | 15 | 306 | 0.0 | 17.7 | 0.00 | 0.00 | 0.00 | 26 | 1003.7 |